Date String (YYYY-MM-DD hh:mm:ss) UTC,Instrument flags,Ambient pressure (hPa),Sample flow (lpm),Bypass flow (lpm),Sample temperature (°C),Ambient temperature (°C),ASC tube jacket temperature (°C),LED temperature (°C),Box temperature (°C),Sample RH (%),Span deviation,Mass concentration (μg/m³),Mass concentration (μg/m³),Mass concentration (μg/m³)
DateTimeUTC,F1_M11,P_M11,Q1_M11,Q2_M11,T1_M11,T2_M11,T3_M11,T4_M11,T5_M11,U1_M11,ZSPAN_M11,X0_M11,X2_M11,X1_M11
2023-02-02 04:00:00,,0826.7,5.00,0.00,25.1,23.4,00.0,34.0,26.8,08.3,0002.3,0022.72,0011.74,0010.17
2023-02-02 04:01:00,,0826.7,5.01,0.00,25.1,23.4,00.0,33.9,26.8,08.3,0002.2,0023.53,0011.74,0010.16
2023-02-02 04:02:00,,0826.7,4.99,0.00,25.0,23.3,00.0,33.9,26.8,08.3,0002.0,0025.19,0011.80,0010.18
2023-02-02 04:03:00,,0826.7,5.00,0.00,25.0,23.3,00.0,33.9,26.8,08.3,0002.0,0025.91,0011.84,0010.18
2023-02-02 04:04:00,,0826.7,5.00,0.00,25.0,23.3,00.0,33.9,26.8,08.3,0002.2,0026.02,0011.78,0010.15
2023-02-02 04:05:00,,0826.7,5.00,0.00,25.0,23.3,00.0,33.9,26.8,08.3,0002.0,0026.07,0011.79,0010.11
2023-02-02 04:06:00,,0826.7,5.00,0.00,25.0,23.3,00.0,33.9,26.8,08.3,0002.4,0026.04,0011.83,0010.07
2023-02-02 04:07:00,,0826.7,4.99,0.00,25.0,23.3,00.0,33.9,26.8,08.3,0001.8,0026.71,0011.90,0010.04
2023-02-02 04:08:00,,0826.7,5.01,0.00,25.0,23.3,00.0,33.9,26.7,08.3,0000.9,0026.81,0011.83,0009.99
2023-02-02 04:09:00,,0826.8,5.00,0.00,24.9,23.2,00.0,33.9,26.7,08.4,0000.6,0027.11,0011.82,0009.98
2023-02-02 04:10:00,,0826.8,4.99,0.00,24.9,23.2,00.0,33.8,26.6,08.4,0000.8,0027.91,0011.85,0009.99
2023-02-02 04:11:00,,0826.9,5.00,0.00,24.9,23.2,00.0,33.8,26.6,08.4,0000.9,0028.04,0011.80,0009.96
2023-02-02 04:12:00,,0826.8,5.00,0.00,24.9,23.2,00.0,33.8,26.6,08.4,0000.8,0027.52,0011.79,0009.91
2023-02-02 04:13:00,,0826.7,5.02,0.00,24.8,23.2,00.0,33.8,26.5,08.4,0001.4,0026.65,0011.77,0009.85
2023-02-02 04:14:00,,0826.8,4.99,0.00,24.8,23.1,00.0,33.8,26.5,08.4,0001.5,0027.31,0011.74,0009.82
2023-02-02 04:15:00,,0826.7,4.97,0.00,24.8,23.0,00.0,33.8,26.5,08.4,0001.3,0027.85,0011.76,0009.80
2023-02-02 04:16:00,,0826.8,5.00,0.00,24.7,23.0,00.0,33.7,26.5,08.4,0000.8,0028.14,0011.75,0009.76
2023-02-02 04:17:00,,0826.8,4.99,0.00,24.7,23.0,00.0,33.7,26.4,08.4,-000.0,0027.52,0011.67,0009.69
2023-02-02 04:18:00,,0826.7,5.01,0.00,24.7,23.0,00.0,33.7,26.4,08.4,0000.5,0027.18,0011.56,0009.63
2023-02-02 04:19:00,,0826.8,5.01,0.00,24.7,22.9,00.0,33.7,26.3,08.4,0000.9,0026.62,0011.50,0009.63
2023-02-02 04:20:00,,0826.7,5.01,0.00,24.6,22.9,00.0,33.7,26.3,08.5,0000.8,0025.72,0011.43,0009.59
2023-02-02 04:21:00,,0826.7,5.02,0.00,24.6,22.9,00.0,33.6,26.3,08.5,0000.3,0024.81,0011.25,0009.48
2023-02-02 04:22:00,,0826.8,4.97,0.00,24.6,22.9,00.0,33.6,26.4,08.5,-000.1,0023.82,0011.13,0009.40
2023-02-02 04:23:00,,0826.7,5.03,0.00,24.6,22.9,00.0,33.6,26.3,08.5,0000.4,0024.03,0011.05,0009.36
2023-02-02 04:24:00,,0826.7,4.98,0.00,24.6,22.9,00.0,33.6,26.3,08.5,0000.2,0023.52,0010.88,0009.31
2023-02-02 04:25:00,,0826.8,5.01,0.00,24.6,22.9,00.0,33.6,26.3,08.5,0000.8,0023.99,0010.71,0009.20
2023-02-02 04:26:00,,0826.8,5.01,0.00,24.5,22.8,00.0,33.5,26.3,08.5,0000.7,0023.17,0010.48,0009.03
2023-02-02 04:27:00,,0826.8,5.01,0.00,24.5,22.7,00.0,33.5,26.3,08.5,0000.4,0022.26,0010.10,0008.78
2023-02-02 04:28:00,,0826.8,5.01,0.00,24.5,22.7,00.0,33.5,26.2,08.5,0000.0,0021.76,0009.96,0008.70
2023-02-02 04:29:00,,0826.8,4.98,0.00,24.4,22.7,00.0,33.5,26.2,08.5,0000.0,0020.97,0009.78,0008.58
2023-02-02 04:30:00,,0826.7,4.99,0.00,24.4,22.7,00.0,33.5,26.2,08.5,0000.0,0020.56,0009.53,0008.37
2023-02-02 04:31:00,,0826.9,5.00,0.00,24.4,22.7,00.0,33.4,26.2,08.5,0000.0,0020.09,0009.30,0008.19
2023-02-02 04:32:00,,0826.8,4.99,0.00,24.4,22.8,00.0,33.4,26.2,08.4,0000.0,0019.36,0009.13,0008.08
2023-02-02 04:33:00,,0826.7,5.00,0.00,24.4,22.7,00.0,33.4,26.3,08.4,0000.0,0019.37,0009.03,0007.93
2023-02-02 04:34:00,,0826.8,4.98,0.00,24.4,22.7,00.0,33.4,26.2,08.4,0000.0,0019.17,0008.94,0007.79
2023-02-02 04:35:00,,0826.7,4.99,0.00,24.4,22.7,00.0,33.4,26.2,08.4,0000.0,0019.15,0008.92,0007.73
2023-02-02 04:36:00,,0826.7,5.02,0.00,24.4,22.8,00.0,33.4,26.2,08.4,0000.0,0017.87,0008.86,0007.67
2023-02-02 04:37:00,,0826.7,5.00,0.00,24.4,22.8,00.0,33.3,26.2,08.4,0000.0,0016.80,0008.83,0007.65
2023-02-02 04:38:00,,0826.7,4.99,0.00,24.4,22.8,00.0,33.3,26.2,08.4,0000.0,0016.73,0008.90,0007.71
2023-02-02 04:39:00,,0826.8,4.97,0.00,24.4,22.7,00.0,33.3,26.2,08.4,0000.0,0016.80,0008.89,0007.71
2023-02-02 04:40:00,,0826.8,5.03,0.00,24.4,22.8,00.0,33.3,26.2,08.4,0000.0,0016.63,0008.84,0007.70
2023-02-02 04:41:00,,0826.7,4.97,0.00,24.4,22.8,00.0,33.3,26.2,08.4,0000.0,0017.29,0008.86,0007.72
2023-02-02 04:42:00,,0826.9,4.99,0.00,24.4,22.7,00.0,33.3,26.2,08.4,0000.0,0017.98,0008.85,0007.72
2023-02-02 04:43:00,,0826.8,5.00,0.00,24.4,22.7,00.0,33.3,26.2,08.4,0000.0,0017.94,0008.82,0007.69
2023-02-02 04:44:00,,0826.8,5.00,0.00,24.3,22.7,00.0,33.3,26.1,08.4,0000.0,0018.17,0008.75,0007.66
2023-02-02 04:45:00,,0826.7,5.01,0.00,24.3,22.6,00.0,33.2,26.1,08.4,0000.0,0017.90,0008.66,0007.62
2023-02-02 04:46:00,,0826.8,5.00,0.00,24.3,22.5,00.0,33.2,26.0,08.4,0000.0,0017.83,0008.53,0007.53
2023-02-02 04:47:00,,0826.7,4.99,0.00,24.3,22.5,00.0,33.2,26.0,08.4,0000.0,0017.54,0008.42,0007.47
2023-02-02 04:48:00,,0826.7,5.00,0.00,24.2,22.5,00.0,33.2,26.0,08.4,0000.0,0018.12,0008.41,0007.46
2023-02-02 04:49:00,,0826.7,5.00,0.00,24.2,22.5,00.0,33.2,26.1,08.4,0000.0,0018.05,0008.39,0007.48
2023-02-02 04:50:00,,0826.7,4.99,0.00,24.2,22.5,00.0,33.2,26.0,08.4,0000.6,0018.61,0008.38,0007.45
2023-02-02 04:51:00,,0826.8,4.99,0.00,24.2,22.5,00.0,33.2,26.1,08.4,0000.0,0019.50,0008.44,0007.48
2023-02-02 04:52:00,,0826.7,5.00,0.00,24.2,22.5,00.0,33.1,26.0,08.5,0000.0,0019.14,0008.57,0007.55
2023-02-02 04:53:00,,0826.7,4.99,0.00,24.2,22.5,00.0,33.1,26.0,08.5,0000.0,0020.16,0008.72,0007.65
2023-02-02 04:54:00,,0826.7,5.01,0.00,24.2,22.5,00.0,33.1,26.0,08.5,0000.0,0021.55,0008.88,0007.76
2023-02-02 04:55:00,,0826.7,5.01,0.00,24.2,22.5,00.0,33.1,26.0,08.5,0000.0,0022.00,0009.00,0007.88
2023-02-02 04:56:00,,0826.8,4.99,0.00,24.2,22.6,00.0,33.1,26.0,08.5,0000.0,0022.26,0009.14,0007.99
2023-02-02 04:57:00,,0826.7,4.99,0.00,24.2,22.6,00.0,33.1,26.0,08.6,0000.0,0021.88,0009.24,0008.11
2023-02-02 04:58:00,,0826.8,5.00,0.00,24.2,22.6,00.0,33.1,26.0,08.6,0000.0,0022.19,0009.39,0008.23
2023-02-02 04:59:00,,0826.8,5.00,0.00,24.2,22.5,00.0,33.1,26.0,08.6,0000.0,0022.12,0009.51,0008.32
